Find Starlink 11523

NORAD ID: 62565 Int'l Des: 2025-006 Owner: SPXS Country: US Constellation: starlink operational
LEOCIRCULAR

实时位置

正在加载3D地球...

关于 Starlink 11523

正在加载描述...

即将过境

Passes for default location (London). Set your location on the main map for personalized predictions.

高度历史

Loading altitude history...

两行轨道根数

1 62565U 25006M 26123.84102558 .00172280 00000-0 13131-2 0 9995
2 62565 42.9998 167.6925 0000797 308.2182 51.8614 15.70937697 75270
Epoch: May 3, 2026 • Age: 9 hours

当前状态

高度 358.9 km
速度 7.70 km/s
星下点 41.45°N, 71.34°W
发射日期 Jan 10, 2025
运行时间 1.3 years
类型 internet

技术详情

分类 Payload
质量 960.00 kg
干质量 910.00 kg
总质量 960.00 kg
长度 0.30 m
直径 4.10 m
跨度 29.00 m
形状 Box + pan
制造商 SPXS
平台类型 Starlink V2MD
阶段状态 In Orbit
所有者/国家 SPXS/US

Most Searched